AIC228 VOBL-VOHS

Flight info

Callsign AIC228
Flight time 0h 49m
Altitude 33000
Route LATID8A/09L LATID Q22 SAKRO SARKA8
Aircraft A359/H-SDE2E3GHIJ3J4J5LM1ORWXY/LB1D1

Departure

Time 2026-05-08 15:51
Airport Kempegowda International Airport Bengaluru (VOBL)

Arrival

Time 2026-05-08 16:41
Airport Rajiv Gandhi International Airport (VOHS)
Time Latitude Longitude Altitude Speed Heading
2026-05-08 15:45 13.20326 77.70400 2975 ft 6 kts 348°
2026-05-08 15:46 13.20373 77.70394 2975 ft 8 kts 355°
2026-05-08 15:46 13.20433 77.70391 2975 ft 9 kts 357°
2026-05-08 15:46 13.20490 77.70380 2976 ft 7 kts 329°
2026-05-08 15:46 13.20522 77.70342 2976 ft 8 kts 303°
2026-05-08 15:47 13.20530 77.70298 2977 ft 6 kts 273°
2026-05-08 15:47 13.20532 77.70246 2978 ft 11 kts 272°
2026-05-08 15:47 13.20534 77.70127 2978 ft 19 kts 271°
2026-05-08 15:47 13.20533 77.69980 2977 ft 22 kts 269°
2026-05-08 15:48 13.20537 77.69643 2976 ft 26 kts 270°
2026-05-08 15:48 13.20537 77.69448 2973 ft 29 kts 270°
2026-05-08 15:48 13.20540 77.69239 2974 ft 30 kts 271°
2026-05-08 15:49 13.20538 77.69020 2972 ft 32 kts 269°
2026-05-08 15:49 13.20541 77.68792 2975 ft 32 kts 271°
2026-05-08 15:49 13.20559 77.68644 2977 ft 0 kts 308°
2026-05-08 15:49 13.20561 77.68642 2977 ft 1 kts 312°
2026-05-08 15:50 13.20601 77.68621 2976 ft 8 kts 347°
2026-05-08 15:50 13.20675 77.68624 2975 ft 11 kts 17°
2026-05-08 15:50 13.20722 77.68716 2974 ft 28 kts 76°
2026-05-08 15:50 13.20716 77.68823 2975 ft 24 kts 92°
2026-05-08 15:51 13.20714 77.69204 2975 ft 87 kts 90°
2026-05-08 15:51 13.20703 77.70039 2976 ft 145 kts 89°
2026-05-08 15:51 13.20740 77.71491 3762 ft 155 kts 90°
2026-05-08 15:51 13.20804 77.72241 4236 ft 157 kts 83°
2026-05-08 15:52 13.20975 77.73357 4876 ft 163 kts 82°
2026-05-08 15:52 13.21065 77.74564 5241 ft 177 kts 90°
2026-05-08 15:52 13.20943 77.75872 5528 ft 192 kts 95°
2026-05-08 15:52 13.20796 77.77319 5752 ft 214 kts 94°
2026-05-08 15:53 13.20697 77.78904 6045 ft 231 kts 91°
2026-05-08 15:53 13.20638 77.80614 6383 ft 247 kts 90°
2026-05-08 15:53 13.20602 77.82421 6779 ft 259 kts 89°
2026-05-08 15:53 13.20578 77.84269 7302 ft 265 kts 89°
2026-05-08 15:54 13.20558 77.86181 7851 ft 270 kts 89°
2026-05-08 15:54 13.20611 77.88118 8418 ft 273 kts 81°
2026-05-08 15:54 13.21230 77.89970 8966 ft 276 kts 57°
2026-05-08 15:54 13.22561 77.91354 9539 ft 279 kts 32°
2026-05-08 15:55 13.24391 77.92011 10123 ft 283 kts
2026-05-08 15:55 13.28492 77.92105 10797 ft 306 kts
2026-05-08 15:55 13.30669 77.92083 11079 ft 318 kts 359°
2026-05-08 15:56 13.32873 77.91643 11380 ft 330 kts 339°
2026-05-08 15:56 13.34909 77.90567 11801 ft 336 kts 332°
2026-05-08 15:56 13.36938 77.89337 12245 ft 340 kts 330°
2026-05-08 15:56 13.38985 77.88086 12720 ft 343 kts 331°
2026-05-08 15:57 13.41047 77.86835 13193 ft 346 kts 331°
2026-05-08 15:57 13.43139 77.85576 13651 ft 348 kts 331°
2026-05-08 15:57 13.45247 77.84312 14090 ft 351 kts 331°
2026-05-08 15:57 13.47369 77.83046 14492 ft 354 kts 332°
2026-05-08 15:58 13.49577 77.82005 14885 ft 355 kts 342°
2026-05-08 15:58 13.51998 77.81525 15274 ft 356 kts 358°
2026-05-08 15:58 13.54480 77.81650 15687 ft 358 kts
2026-05-08 15:58 13.56961 77.81960 16102 ft 360 kts
2026-05-08 15:59 13.59458 77.82308 16506 ft 363 kts
2026-05-08 15:59 13.61975 77.82667 16886 ft 366 kts
2026-05-08 15:59 13.64512 77.83029 17255 ft 369 kts
2026-05-08 15:59 13.67068 77.83393 17632 ft 372 kts
2026-05-08 16:00 13.69628 77.83757 17900 ft 366 kts
2026-05-08 16:00 13.72110 77.84110 17781 ft 354 kts
2026-05-08 16:00 13.74586 77.84462 17832 ft 366 kts
2026-05-08 16:00 13.77101 77.84820 18075 ft 372 kts
2026-05-08 16:01 13.79688 77.85189 18383 ft 377 kts
2026-05-08 16:01 13.82254 77.85554 18697 ft 379 kts
2026-05-08 16:01 13.84876 77.85928 19036 ft 381 kts
2026-05-08 16:01 13.87522 77.86305 19353 ft 384 kts
2026-05-08 16:02 13.90173 77.86682 19687 ft 386 kts
2026-05-08 16:02 13.92839 77.87062 20017 ft 388 kts
2026-05-08 16:02 13.95482 77.87439 20344 ft 390 kts
2026-05-08 16:02 13.98172 77.87822 20681 ft 392 kts
2026-05-08 16:03 14.00891 77.88210 20992 ft 394 kts
2026-05-08 16:03 14.03611 77.88598 21322 ft 395 kts
2026-05-08 16:03 14.06342 77.88987 21642 ft 397 kts
2026-05-08 16:03 14.09092 77.89379 21958 ft 399 kts
2026-05-08 16:04 14.11855 77.89774 22260 ft 402 kts
2026-05-08 16:04 14.14594 77.90165 22572 ft 403 kts
2026-05-08 16:04 14.17384 77.90563 22886 ft 405 kts
2026-05-08 16:04 14.20188 77.90963 23188 ft 407 kts
2026-05-08 16:05 14.23003 77.91365 23478 ft 410 kts
2026-05-08 16:05 14.25840 77.91771 23748 ft 412 kts
2026-05-08 16:05 14.28686 77.92178 23981 ft 414 kts
2026-05-08 16:05 14.31546 77.92587 24229 ft 416 kts
2026-05-08 16:06 14.34428 77.92999 24483 ft 417 kts
2026-05-08 16:06 14.37277 77.93406 24748 ft 419 kts
2026-05-08 16:06 14.40170 77.93820 25002 ft 421 kts
2026-05-08 16:06 14.43085 77.94238 25246 ft 423 kts
2026-05-08 16:07 14.46009 77.94656 25500 ft 425 kts
2026-05-08 16:07 14.48950 77.95094 25754 ft 427 kts
2026-05-08 16:07 14.51894 77.95571 26003 ft 429 kts
2026-05-08 16:07 14.54852 77.96072 26250 ft 431 kts
2026-05-08 16:08 14.57825 77.96584 26500 ft 434 kts
2026-05-08 16:08 14.60767 77.97092 26747 ft 436 kts
2026-05-08 16:08 14.63772 77.97609 27006 ft 438 kts
2026-05-08 16:08 14.66793 77.98125 27269 ft 440 kts
2026-05-08 16:09 14.69820 77.98639 27539 ft 442 kts
2026-05-08 16:09 14.72874 77.99157 27789 ft 445 kts
2026-05-08 16:09 14.75935 77.99675 28054 ft 447 kts
2026-05-08 16:09 14.79019 78.00197 28326 ft 449 kts
2026-05-08 16:10 14.82108 78.00720 28580 ft 452 kts
2026-05-08 16:10 14.85229 78.01248 28846 ft 454 kts
2026-05-08 16:10 14.88316 78.01771 29111 ft 457 kts
2026-05-08 16:10 14.91464 78.02304 29371 ft 460 kts
2026-05-08 16:11 14.94637 78.02841 29622 ft 463 kts
2026-05-08 16:11 14.97824 78.03382 29894 ft 465 kts
2026-05-08 16:11 15.01035 78.03926 30124 ft 469 kts
2026-05-08 16:11 15.04266 78.04474 30349 ft 472 kts
2026-05-08 16:12 15.07512 78.05026 30609 ft 474 kts
2026-05-08 16:12 15.10772 78.05580 30863 ft 476 kts
2026-05-08 16:12 15.14057 78.06138 31140 ft 478 kts
2026-05-08 16:12 15.17357 78.06699 31402 ft 480 kts
2026-05-08 16:13 15.20620 78.07254 31683 ft 482 kts
2026-05-08 16:13 15.23946 78.07820 31941 ft 484 kts
2026-05-08 16:13 15.27282 78.08387 32204 ft 486 kts
2026-05-08 16:13 15.30631 78.08957 32463 ft 488 kts
2026-05-08 16:14 15.33953 78.09523 32728 ft 490 kts
2026-05-08 16:14 15.37336 78.10095 32911 ft 489 kts
2026-05-08 16:14 15.40647 78.10642 32944 ft 473 kts
2026-05-08 16:14 15.43844 78.11165 32942 ft 458 kts
2026-05-08 16:15 15.46937 78.11668 32940 ft 443 kts
2026-05-08 16:15 15.49938 78.12155 32943 ft 430 kts
2026-05-08 16:15 15.55802 78.13107 32943 ft 425 kts
2026-05-08 16:16 15.61613 78.14053 32943 ft 425 kts
2026-05-08 16:16 15.67452 78.15006 32559 ft 425 kts
2026-05-08 16:17 15.70409 78.15489 31770 ft 433 kts
2026-05-08 16:17 15.72390 78.15813 31233 ft 438 kts
2026-05-08 16:17 15.76472 78.16479 30182 ft 448 kts
2026-05-08 16:17 15.79534 78.16980 29417 ft 452 kts
2026-05-08 16:18 15.82632 78.17489 28836 ft 450 kts
2026-05-08 16:18 15.85722 78.17997 28337 ft 446 kts
2026-05-08 16:18 15.88784 78.18499 27862 ft 442 kts
2026-05-08 16:18 15.91806 78.18995 27394 ft 437 kts
2026-05-08 16:19 15.94806 78.19488 26938 ft 433 kts
2026-05-08 16:19 15.97732 78.19967 26490 ft 429 kts
2026-05-08 16:19 16.00665 78.20448 26025 ft 425 kts
2026-05-08 16:19 16.03579 78.20926 25570 ft 421 kts
2026-05-08 16:20 16.06464 78.21399 25134 ft 417 kts
2026-05-08 16:20 16.09318 78.21868 24698 ft 413 kts
2026-05-08 16:20 16.12151 78.22334 24253 ft 409 kts
2026-05-08 16:20 16.14947 78.22794 23800 ft 406 kts
2026-05-08 16:21 16.17710 78.23248 23122 ft 408 kts
2026-05-08 16:21 16.20512 78.23708 22582 ft 404 kts
2026-05-08 16:21 16.23275 78.24161 22091 ft 399 kts
2026-05-08 16:21 16.26001 78.24607 21600 ft 395 kts
2026-05-08 16:22 16.28710 78.25050 21121 ft 391 kts
2026-05-08 16:22 16.31383 78.25488 20644 ft 388 kts
2026-05-08 16:22 16.34053 78.25925 20165 ft 386 kts
2026-05-08 16:22 16.36691 78.26358 19716 ft 383 kts
2026-05-08 16:23 16.39290 78.26784 19259 ft 380 kts
2026-05-08 16:23 16.41895 78.27211 18817 ft 378 kts
2026-05-08 16:23 16.44488 78.27637 18372 ft 375 kts
2026-05-08 16:23 16.47063 78.28060 17888 ft 373 kts
2026-05-08 16:24 16.49615 78.28479 17381 ft 370 kts
2026-05-08 16:24 16.52148 78.28895 16885 ft 366 kts
2026-05-08 16:24 16.54650 78.29306 16397 ft 363 kts
2026-05-08 16:24 16.57138 78.29715 15912 ft 360 kts
2026-05-08 16:25 16.59603 78.30122 15434 ft 357 kts
2026-05-08 16:25 16.62048 78.30526 14973 ft 354 kts
2026-05-08 16:25 16.64470 78.30926 14516 ft 351 kts
2026-05-08 16:25 16.66851 78.31319 14067 ft 349 kts
2026-05-08 16:26 16.69243 78.31715 13578 ft 344 kts
2026-05-08 16:26 16.71533 78.32093 13072 ft 321 kts
2026-05-08 16:26 16.73674 78.32447 12568 ft 303 kts
2026-05-08 16:26 16.75705 78.32783 12077 ft 287 kts
2026-05-08 16:27 16.77643 78.33103 11581 ft 275 kts
2026-05-08 16:27 16.79473 78.33406 11112 ft 264 kts
2026-05-08 16:27 16.81258 78.33701 10645 ft 255 kts
2026-05-08 16:27 16.82993 78.33988 10183 ft 248 kts
2026-05-08 16:28 16.84680 78.34266 9711 ft 242 kts 10°
2026-05-08 16:28 16.86335 78.34541 9197 ft 237 kts 10°
2026-05-08 16:28 16.87930 78.34806 8722 ft 233 kts 10°
2026-05-08 16:28 16.89525 78.35063 8230 ft 230 kts
2026-05-08 16:29 16.91110 78.35111 7781 ft 225 kts 356°
2026-05-08 16:29 16.92660 78.34924 7335 ft 226 kts 355°
2026-05-08 16:29 16.94244 78.34749 6866 ft 228 kts 356°
2026-05-08 16:29 16.95802 78.34592 6405 ft 223 kts 357°
2026-05-08 16:30 16.97346 78.34446 5922 ft 222 kts 357°
2026-05-08 16:30 16.98365 78.34352 5601 ft 222 kts 357°
2026-05-08 16:30 16.99651 78.34236 5238 ft 222 kts 357°
2026-05-08 16:30 17.01190 78.34097 5018 ft 223 kts 358°
2026-05-08 16:31 17.02742 78.33961 4986 ft 223 kts 357°
2026-05-08 16:31 17.04284 78.33825 4992 ft 222 kts 357°
2026-05-08 16:31 17.05826 78.33688 4989 ft 221 kts 358°
2026-05-08 16:31 17.07352 78.33553 4993 ft 213 kts 358°
2026-05-08 16:32 17.08790 78.33423 4990 ft 202 kts 358°
2026-05-08 16:32 17.10164 78.33286 4993 ft 200 kts 355°
2026-05-08 16:32 17.11517 78.32912 4957 ft 203 kts 340°
2026-05-08 16:32 17.12725 78.32109 4676 ft 207 kts 319°
2026-05-08 16:33 17.13582 78.30918 4603 ft 207 kts 299°
2026-05-08 16:33 17.14022 78.29503 4586 ft 202 kts 279°
2026-05-08 16:33 17.14082 78.28054 4594 ft 198 kts 269°
2026-05-08 16:33 17.14047 78.26622 4573 ft 196 kts 269°
2026-05-08 16:34 17.14232 78.25252 4590 ft 188 kts 289°
2026-05-08 16:34 17.14906 78.24117 4588 ft 183 kts 317°
2026-05-08 16:34 17.15962 78.23416 4594 ft 179 kts 341°
2026-05-08 16:34 17.17143 78.23017 4591 ft 178 kts 347°
2026-05-08 16:35 17.18327 78.22676 4591 ft 178 kts 347°
2026-05-08 16:35 17.19531 78.22380 4588 ft 177 kts 354°
2026-05-08 16:35 17.20708 78.22444 4563 ft 158 kts 18°
2026-05-08 16:35 17.21611 78.22917 4564 ft 138 kts 40°
2026-05-08 16:36 17.22243 78.23656 4601 ft 137 kts 60°
2026-05-08 16:36 17.22567 78.24595 4597 ft 139 kts 80°
2026-05-08 16:36 17.22633 78.25606 4598 ft 140 kts 90°
2026-05-08 16:36 17.22644 78.26622 4593 ft 139 kts 89°
2026-05-08 16:37 17.22661 78.27648 4480 ft 142 kts 89°
2026-05-08 16:37 17.22681 78.28659 4290 ft 139 kts 89°
2026-05-08 16:37 17.22697 78.29673 4124 ft 139 kts 89°
2026-05-08 16:37 17.22711 78.30685 3941 ft 138 kts 89°
2026-05-08 16:38 17.22725 78.31689 3772 ft 138 kts 89°
2026-05-08 16:38 17.22735 78.32351 3658 ft 137 kts 89°
2026-05-08 16:38 17.22749 78.33354 3482 ft 138 kts 89°
2026-05-08 16:38 17.22766 78.34656 3262 ft 137 kts 89°
2026-05-08 16:39 17.22776 78.35326 3149 ft 137 kts 90°
2026-05-08 16:39 17.22789 78.36319 2949 ft 136 kts 89°
2026-05-08 16:39 17.22796 78.37305 2790 ft 136 kts 90°
2026-05-08 16:39 17.22818 78.38302 2600 ft 136 kts 88°
2026-05-08 16:40 17.22837 78.39266 2431 ft 134 kts 92°
2026-05-08 16:40 17.22849 78.40272 2220 ft 137 kts 91°
2026-05-08 16:40 17.22857 78.41263 2044 ft 137 kts 91°
2026-05-08 16:40 17.22870 78.42208 1985 ft 113 kts 90°
2026-05-08 16:41 17.22891 78.42748 1986 ft 52 kts 75°
2026-05-08 16:41 17.22998 78.42986 1988 ft 14 kts 58°
2026-05-08 16:41 17.23051 78.43077 1990 ft 16 kts 58°
2026-05-08 16:42 17.23237 78.43160 1986 ft 17 kts 359°
2026-05-08 16:42 17.23359 78.43162 1988 ft 18 kts
2026-05-08 16:42 17.23404 78.43162 1989 ft 0 kts 360°